Zurück zum Katalog

COSMOS 2557

GLONASS

AktivNavigationMEO
NORAD 52984·PAYLOAD·🇷🇺 Russia

Gestartet Jul 7, 2022 von Plesetsk Cosmodrome

Loading…

Nächste Überflüge (nächste 24 Stunden)

TLE

AktuellSource: CelesTrak SupGP

Epoche: Sep 12, 2026, 23:59 UTC

1 52984C 20075A   26255.99979167  .00000000  00000+0  00000+0 0  2552
2 52984  64.2415 311.3877 0012611 269.6069 197.1190  2.13102358    15

Verfolge COSMOS 2557 in Echtzeit mit AllMySat

Download on the App Store